__ Bye Litespeed _____
██████ ██████ ███████████ █████████ █████ ████ █████ ████
░░██████ ██████ ░░███░░░░░███ ███░░░░░███░░███ ███░ ░░███ ███░
░███░█████░███ ░███ ░███ ░███ ░░░ ░███ ███ ░███ ███
░███░░███ ░███ ░██████████ ░░█████████ ░███████ ░███████
░███ ░░░ ░███ ░███░░░░░███ ░░░░░░░░███ ░███░░███ ░███░░███
░███ ░███ ░███ ░███ ███ ░███ ░███ ░░███ ░███ ░░███
█████ █████ █████ █████ ░░█████████ █████ ░░████ █████ ░░████
| Permissions | ||||||
|---|---|---|---|---|---|---|
| . | 4096 | 2026-04-17 22:44:15 | 0755 | |||
| .. | 4096 | 2026-04-17 22:44:00 | 0755 | |||
| ar.js | 8334 | 2026-04-17 22:44:14 | 0644 | |||
| az.js | 8148 | 2026-04-17 22:44:08 | 0644 | |||
| bg.js | 8353 | 2026-04-17 22:44:07 | 0644 | |||
| ca.js | 8323 | 2026-04-17 22:44:08 | 0644 | |||
| cs.js | 8683 | 2026-04-17 22:44:12 | 0644 | |||
| da.js | 8265 | 2026-04-17 22:44:10 | 0644 | |||
| de.js | 8222 | 2026-04-17 22:44:10 | 0644 | |||
| el.js | 8579 | 2026-04-17 22:44:03 | 0644 | |||
| en.js | 8274 | 2026-04-17 22:44:11 | 0644 | |||
| es.js | 8318 | 2026-04-17 22:44:15 | 0644 | |||
| et.js | 8222 | 2026-04-17 22:44:03 | 0644 | |||
| eu.js | 8291 | 2026-04-17 22:44:06 | 0644 | |||
| fa.js | 8451 | 2026-04-17 22:44:10 | 0644 | |||
| fi.js | 8150 | 2026-04-17 22:44:05 | 0644 | |||
| fr.js | 8349 | 2026-04-17 22:44:12 | 0644 | |||
| gl.js | 8247 | 2026-04-17 22:44:02 | 0644 | |||
| he.js | 8398 | 2026-04-17 22:44:07 | 0644 | |||
| hi.js | 8572 | 2026-04-17 22:44:11 | 0644 | |||
| hr.js | 8286 | 2026-04-17 22:44:04 | 0644 | |||
| hu.js | 8174 | 2026-04-17 22:44:13 | 0644 | |||
| id.js | 8199 | 2026-04-17 22:44:08 | 0644 | |||
| is.js | 8220 | 2026-04-17 22:44:04 | 0644 | |||
| it.js | 8323 | 2026-04-17 22:44:14 | 0644 | |||
| ja.js | 8295 | 2026-04-17 22:44:06 | 0644 | |||
| km.js | 8512 | 2026-04-17 22:44:12 | 0644 | |||
| ko.js | 8301 | 2026-04-17 22:44:04 | 0644 | |||
| lt.js | 8360 | 2026-04-17 22:44:14 | 0644 | |||
| lv.js | 8319 | 2026-04-17 22:44:02 | 0644 | |||
| mk.js | 8426 | 2026-04-17 22:44:06 | 0644 | |||
| ms.js | 8238 | 2026-04-17 22:44:05 | 0644 | |||
| nb.js | 8232 | 2026-04-17 22:44:08 | 0644 | |||
| nl.js | 8343 | 2026-04-17 22:44:13 | 0644 | |||
| pl.js | 8372 | 2026-04-17 22:44:03 | 0644 | |||
| pt-BR.js | 8300 | 2026-04-17 22:44:09 | 0644 | |||
| pt.js | 8306 | 2026-04-17 22:44:02 | 0644 | |||
| ro.js | 8356 | 2026-04-17 22:44:15 | 0644 | |||
| ru.js | 8574 | 2026-04-17 22:44:05 | 0644 | |||
| sk.js | 8631 | 2026-04-17 22:44:14 | 0644 | |||
| sr-Cyrl.js | 8514 | 2026-04-17 22:44:07 | 0644 | |||
| sr.js | 8385 | 2026-04-17 22:44:13 | 0644 | |||
| sv.js | 8233 | 2026-04-17 22:44:11 | 0644 | |||
| th.js | 8398 | 2026-04-17 22:44:05 | 0644 | |||
| tr.js | 8167 | 2026-04-17 22:44:15 | 0644 | |||
| uk.js | 8564 | 2026-04-17 22:44:11 | 0644 | |||
| vi.js | 8248 | 2026-04-17 22:44:02 | 0644 | |||
| zh-CN.js | 8216 | 2026-04-17 22:44:09 | 0644 | |||
| zh-TW.js | 8155 | 2026-04-17 22:44:09 | 0644 |